ICS-EF (45265 NORAD) Tracking and Keplerian Element Data

This shows tracking and keplerian element data for the satellite.

Feedback or suggestion? Click here.




ElementValue
Catalog45265
NameICS-EF
Epoch Orbit645
Epoch Day93.86580156
Epoch Year2020
RAAN1.1185
Inclination51.6437
Eccentricity0.0006339
Argument of Perigee89.6714
Mean Anonmoly270.5001
Mean Motion15.49414486
Decay Rate2.431E-05
L11 45265U 98067RJ 20093.86580156 .00002431 00000-0 51577-4 0 9994
L22 45265 51.6437 1.1185 0006339 89.6714 270.5001 15.49414486 6458

Live tracking and technical data element details for ICS-EF (NORAD 45265). ICS-EF can be tracked NOW for your location showing map with azimuth and elevation plus other details from your city location.

Track the satellite on the map from your city or location and see movement details for azimuth, elevation, latitude, longitude, range, height, and movement on the map or in text.







IsCatalogInMostPopularTable: catalog: 45265, numindb: 7
Update: records affected: 1



GetName: 45265 ICS-EF

Hit Count: updated at: Mon, 06 Apr 2020 10:48:13 GMT